Regional Weather Roundup
Issued by NWS

Home | Current Version | Previous Version | Graphics & Text | Print | Product List | Glossary On
Versions: 1 2 3 4 5 6 7 8 9 10 11 12 13 14 15 16 17 18 19 20 21 22 23 24 25 26 27 28 29 30 31 32 33 34 35 36 37 38 39 40 41 42 43 44 45 46 47 48 49 50
000
ASUS45 KABQ 201910
RWRNM
WEATHER ROUNDUP FOR NEW MEXICO
NATIONAL WEATHER SERVICE ALBUQUERQUE NM
1200 PM MST SAT DEC 20 2014

NOTE: "FAIR" MEANS FEW OR NO CLOUDS BELOW 12,000 FEET AGL WITH NO
       SIGNIFICANT WEATHER OR OBSTRUCTIONS TO VISION.

      THIS PRODUCT IS RELEASED AS TWO VERSIONS.  ONE VERSION NEAR
      THE TOP OF THE HOUR CONTAINING PRELIMINARY DATA FROM ALBUQUERQUE
      AND OTHER STATIONS.  A FINAL VERSION WITH ADDITIONAL DATA IS
      ISSUED ABOUT 10 MINUTES AFTER THE HOUR.

NMZ501-503-504-510>518-202000-
NORTHWEST PLATEAU/NORTHCENTRAL MOUNTAINS

CITY           SKY/WX    TMP DP  RH WIND       PRES   REMARKS
FARMINGTON     SUNNY     36  26  67 CALM      30.16F
LOS ALAMOS     SUNNY     34  18  53 CALM      30.11F
SANTA FE       MOSUNNY   36  18  48 N13       30.10F WCI  27
TAOS           SUNNY     34  18  51 E3        30.11F
ANGEL FIRE     FAIR      23  16  73 CALM      30.09F

$$
NMZ402-403-502-505>509-202000-
WESTCENTRAL MOUNTAINS/SOUTHWEST MOUNTAINS

CITY           SKY/WX    TMP DP  RH WIND       PRES   REMARKS
GALLUP         SUNNY     31  27  85 W3        30.17F
GRANTS         SUNNY     41  22  48 N8        30.16F
SILVER CITY    SUNNY     45  32  61 SW7       30.17F

$$
NMZ407-409-411-412-202000-
SOUTHERN DESERTS

CITY           SKY/WX    TMP DP  RH WIND       PRES   REMARKS
LORDSBURG      FAIR      45  34  65 CALM      30.16F
DEMING         SUNNY     48  30  49 CALM      30.15F
LAS CRUCES     SUNNY     48  29  47 NW3       30.15F
HOLLOMAN AFB   MOSUNNY   48  29  47 NW5       30.12F
ALAMOGORDO     MOSUNNY   46  30  53 NW7       30.14F
T OR C         SUNNY     45  24  43 E5        30.13F

$$
NMZ519>523-202000-
CENTRAL VALLEYS/CENTRAL HIGHLANDS

CITY           SKY/WX    TMP DP  RH WIND       PRES   REMARKS
ALBUQUERQUE    PTSUNNY   39  25  57 NW5       30.15F
DOUBLE EAGLE   MOSUNNY   37  25  60 N5        30.14F WCI  34
MORIARTY ARPT  FAIR      39  18  43 NW9       30.10F WCI  33
CLINES CORNERS PTSUNNY   37  17  44 NW17      30.04F WCI  27
BELEN          FAIR      40  26  55 NE3       30.15F
SOCORRO        FAIR      42  26  52 CALM      30.14F

$$
NMZ524>526-539-540-202000-
SOUTHCENTRAL MOUNTAINS

CITY           SKY/WX    TMP DP  RH WIND       PRES   REMARKS
RUIDOSO        PTSUNNY   43  18  36 NW9       30.10F

$$
NMZ527>531-202000-
NORTHEAST HIGHLANDS/NORTHEAST PLAINS

CITY           SKY/WX    TMP DP  RH WIND       PRES   REMARKS
LAS VEGAS      PTSUNNY   45   8  22 E7        30.03F
RATON          PTSUNNY   47  10  22 CALM      30.00F
CLAYTON        MOSUNNY   51  21  30 E8        30.00F

$$
NMZ532>537-202000-
EASTCENTRAL PLAINS

CITY           SKY/WX    TMP DP  RH WIND       PRES   REMARKS
TUCUMCARI      SUNNY     45  28  51 W6        30.03F
CANNON AFB     SUNNY     47  22  36 SW12      30.04F
CLOVIS AIRPORT SUNNY     48  23  37 SW18      30.04F

$$
NMZ028-029-538-202000-
SOUTHEAST PLAINS

CITY           SKY/WX    TMP DP  RH WIND       PRES   REMARKS
ROSWELL        SUNNY     50  28  42 S6        30.06F
ARTESIA        SUNNY     50  28  43 SE8       30.08F
CARLSBAD       SUNNY     49  33  54 SE7       30.08F
HOBBS          SUNNY     45  39  81 SE8       30.08F


$$



USA.gov is the U.S. government's official web portal to all federal, state and local government web resources and services.